sat.trackr.live / text

‹ back to catalog

JILIN-1 GAOFEN 3F

NORAD 46458 · 2020-065E

PAYLOAD ACTIVE UNKNOWN

§ Identity

Operator
Country
PRC
Launch date
2020-09-15
Launch site
SEAL
Launch vehicle
Mass (kg)
RCS (m²)

External: N2YO · Heavens-Above · Gunter

§ Orbital elements

Epoch: 2026-05-25T03:36:20.596032Z

Period
92.40 min
Inclination
97.2234°
Eccentricity
0.0012339
Mean motion
15.58411056 rev/d
Perigee alt
383.9 km
Apogee alt
400.6 km
Semi-major
6,770.4 km
B*
6.1596e-4
RAAN
194.7105°
Arg perigee
224.0652°
Mean anomaly
135.9622°
Rev number
31,611

§ Raw data

JILIN-1 GAOFEN 3F1 46458U 20065E   26145.15023838  .00047105  00000+0  61596-3 0  99942 46458  97.2234 194.7105 0012339 224.0652 135.9622 15.58411056316118

JSON: /api/v1/satellites/46458 · /tle

For live sub-satellite position, see the globe view (requires WebGL).

§ Visibility from observer

Set your observer location to see the next 7 days of passes ≥ 10°. The values pass through the URL so the page stays shareable.

No JS? Fill the form by hand. The geolocation button needs JavaScript.

§ Radio — SatNOGS DB

ModeDescriptionDownlinkUplink
BPSK Jillin Mysterious Pip 1.616 GHz

1 transmitter · refreshed weekly from db.satnogs.org